{"data":{"norad_id":68724,"intl_designator":"2026-081AB","name":"STARLINK-37274","alt_names":[],"object_type":"PAYLOAD","status":"ACTIVE","operator":null,"country":"US","launch_date":"2026-04-14","launch_site_code":"AFETR","launch_vehicle":null,"mission":null,"orbit_class":"UNKNOWN","rcs_meters":null,"size_class":null,"mass_kg":null,"dimensions":null,"purposes":["comms"],"wikipedia_slug":null,"has_3d_model":false,"image_url":null,"decayed_at":null,"tle_current":{"epoch":"2026-05-25T04:00:03.998880Z","epoch_age_seconds":61464,"freshness":"FRESH","line1":"1 68724U 26081AB  26145.16671295 -.01831268  00000+0 -47731-1 0  9992","line2":"2 68724  53.1602  38.8098 0001296 107.1290 209.3341 15.41535743  6017","mean_motion":15.41535743,"eccentricity":0.0001296,"inclination_deg":53.1602,"raan_deg":38.8098,"arg_perigee_deg":107.129,"mean_anomaly_deg":209.3341,"bstar":-0.047731,"rev_number":601,"period_min":93.413338389261,"perigee_km":440.69232869717,"apogee_km":442.45999834916,"semimajor_km":6819.7131635232,"source":"CELESTRAK","updated_at":"2026-05-25T13:38:22.003356Z"}}}